Time,TemperatureF,DewpointF,PressureIn,WindDirection,WindDirectionDegrees,WindSpeedMPH,WindSpeedGustMPH,Humidity,HourlyPrecipIn,Conditions,Clouds,dailyrainin,SolarRadiationWatts/m^2,SoftwareType,DateUTC
2013-03-14 00:02:00,45.0,27.0,-100.00,SE,127,9.0,15.0,50,0.00,,,0.00,0.000000,,2013-03-14 06:02:00,
2013-03-14 00:12:00,45.0,27.0,-100.00,SE,127,9.0,15.0,50,0.00,,,0.00,0.000000,,2013-03-14 06:12:00,
2013-03-14 00:33:00,44.0,28.0,-100.00,SE,126,10.0,14.0,52,0.00,,,0.00,0.000000,,2013-03-14 06:33:00,
2013-03-14 00:42:00,44.0,28.0,-100.00,SE,126,10.0,14.0,52,0.00,,,0.00,0.000000,,2013-03-14 06:42:00,
2013-03-14 00:52:00,44.0,28.0,-100.00,SE,126,10.0,14.0,52,0.00,,,0.00,0.000000,,2013-03-14 06:52:00,
2013-03-14 01:02:00,44.0,28.0,-100.00,SE,126,10.0,14.0,52,0.00,,,0.00,0.000000,,2013-03-14 07:02:00,
2013-03-14 01:11:00,44.0,28.0,-100.00,SE,126,10.0,14.0,52,0.00,,,0.00,0.000000,,2013-03-14 07:11:00,
2013-03-14 01:43:00,40.0,25.0,-100.00,ESE,113,3.0,12.0,55,0.00,,,0.00,0.000000,,2013-03-14 07:43:00,
2013-03-14 01:52:00,40.0,25.0,-100.00,ESE,113,3.0,12.0,55,0.00,,,0.00,0.000000,,2013-03-14 07:52:00,
2013-03-14 02:02:00,40.0,25.0,-100.00,ESE,113,3.0,12.0,55,0.00,,,0.00,0.000000,,2013-03-14 08:02:00,
2013-03-14 02:11:00,40.0,25.0,-100.00,ESE,113,3.0,12.0,55,0.00,,,0.00,0.000000,,2013-03-14 08:11:00,
2013-03-14 02:42:00,42.0,26.0,-100.00,ESE,121,8.0,10.0,52,0.00,,,0.00,0.000000,,2013-03-14 08:42:00,
2013-03-14 02:52:00,42.0,26.0,-100.00,ESE,121,8.0,10.0,52,0.00,,,0.00,0.000000,,2013-03-14 08:52:00,
2013-03-14 03:01:00,42.0,26.0,-100.00,ESE,121,8.0,10.0,52,0.00,,,0.00,0.000000,,2013-03-14 09:01:00,
2013-03-14 03:12:00,42.0,26.0,-100.00,ESE,121,8.0,10.0,52,0.00,,,0.00,0.000000,,2013-03-14 09:12:00,
2013-03-14 03:42:00,41.0,24.0,-100.00,ESE,122,9.0,14.0,50,0.00,,,0.00,0.000000,,2013-03-14 09:42:00,
2013-03-14 03:52:00,41.0,24.0,-100.00,ESE,122,9.0,14.0,50,0.00,,,0.00,0.000000,,2013-03-14 09:52:00,
2013-03-14 04:02:00,41.0,24.0,-100.00,ESE,122,9.0,14.0,50,0.00,,,0.00,0.000000,,2013-03-14 10:02:00,
2013-03-14 04:12:00,41.0,24.0,-100.00,ESE,122,9.0,14.0,50,0.00,,,0.00,0.000000,,2013-03-14 10:12:00,
2013-03-14 04:32:00,37.0,22.0,-100.00,SW,215,2.0,10.0,54,0.00,,,0.00,0.000000,,2013-03-14 10:32:00,
2013-03-14 04:42:00,37.0,22.0,-100.00,SW,215,2.0,10.0,54,0.00,,,0.00,0.000000,,2013-03-14 10:42:00,
2013-03-14 04:52:00,37.0,22.0,-100.00,SW,215,2.0,10.0,54,0.00,,,0.00,0.000000,,2013-03-14 10:52:00,
2013-03-14 05:02:00,37.0,22.0,-100.00,SW,215,2.0,10.0,54,0.00,,,0.00,0.000000,,2013-03-14 11:02:00,
2013-03-14 05:12:00,37.0,22.0,-100.00,SW,215,2.0,10.0,54,0.00,,,0.00,0.000000,,2013-03-14 11:12:00,
2013-03-14 05:33:00,40.0,26.0,-100.00,ESE,120,7.0,10.0,58,0.00,,,0.00,0.000000,,2013-03-14 11:33:00,
2013-03-14 05:42:00,40.0,26.0,-100.00,ESE,120,7.0,10.0,58,0.00,,,0.00,0.000000,,2013-03-14 11:42:00,
2013-03-14 05:52:00,40.0,26.0,-100.00,ESE,120,7.0,10.0,58,0.00,,,0.00,0.000000,,2013-03-14 11:52:00,
2013-03-14 06:02:00,40.0,26.0,-100.00,ESE,120,7.0,10.0,58,0.00,,,0.00,0.000000,,2013-03-14 12:02:00,
2013-03-14 06:11:00,40.0,26.0,-100.00,ESE,120,7.0,10.0,58,0.00,,,0.00,0.000000,,2013-03-14 12:11:00,
2013-03-14 06:42:00,33.0,20.0,-100.00,NNE,18,3.0,10.0,59,0.00,,,0.00,0.000000,,2013-03-14 12:42:00,
2013-03-14 06:52:00,33.0,20.0,-100.00,NNE,18,3.0,10.0,59,0.00,,,0.00,0.000000,,2013-03-14 12:52:00,
2013-03-14 07:02:00,33.0,20.0,-100.00,NNE,18,3.0,10.0,59,0.00,,,0.00,0.000000,,2013-03-14 13:02:00,
2013-03-14 07:12:00,33.0,20.0,-100.00,NNE,18,3.0,10.0,59,0.00,,,0.00,0.000000,,2013-03-14 13:12:00,
2013-03-14 07:32:00,35.0,22.0,-100.00,East,86,2.0,10.0,59,0.00,,,0.00,0.000000,,2013-03-14 13:32:00,
2013-03-14 07:43:00,35.0,22.0,-100.00,East,86,2.0,10.0,59,0.00,,,0.00,0.000000,,2013-03-14 13:43:00,
2013-03-14 07:52:00,35.0,22.0,-100.00,East,86,2.0,10.0,59,0.00,,,0.00,0.000000,,2013-03-14 13:52:00,
2013-03-14 08:02:00,35.0,22.0,-100.00,East,86,2.0,10.0,59,0.00,,,0.00,0.000000,,2013-03-14 14:02:00,
2013-03-14 08:12:00,35.0,22.0,-100.00,East,86,2.0,10.0,59,0.00,,,0.00,0.000000,,2013-03-14 14:12:00,
2013-03-14 08:42:00,38.0,20.0,-100.00,East,95,2.0,12.0,48,0.00,,,0.00,0.000000,,2013-03-14 14:42:00,
2013-03-14 08:53:00,38.0,20.0,-100.00,East,95,2.0,12.0,48,0.00,,,0.00,0.000000,,2013-03-14 14:53:00,
2013-03-14 09:02:00,38.0,20.0,-100.00,East,95,2.0,12.0,48,0.00,,,0.00,0.000000,,2013-03-14 15:02:00,
2013-03-14 09:12:00,38.0,20.0,-100.00,East,95,2.0,12.0,48,0.00,,,0.00,0.000000,,2013-03-14 15:12:00,
2013-03-14 09:43:00,45.0,25.0,-100.00,SE,126,6.0,10.0,45,0.00,,,0.00,0.000000,,2013-03-14 15:43:00,
2013-03-14 09:52:00,45.0,25.0,-100.00,SE,126,6.0,10.0,45,0.00,,,0.00,0.000000,,2013-03-14 15:52:00,
2013-03-14 10:02:00,45.0,25.0,-100.00,SE,126,6.0,10.0,45,0.00,,,0.00,0.000000,,2013-03-14 16:02:00,
2013-03-14 10:12:00,45.0,25.0,-100.00,SE,126,6.0,10.0,45,0.00,,,0.00,0.000000,,2013-03-14 16:12:00,
2013-03-14 10:33:00,51.0,28.0,-100.00,SSE,163,6.0,9.0,40,0.00,,,0.00,0.000000,,2013-03-14 16:33:00,
2013-03-14 10:52:00,51.0,28.0,-100.00,SSE,163,6.0,9.0,40,0.00,,,0.00,0.000000,,2013-03-14 16:52:00,
2013-03-14 11:02:00,51.0,28.0,-100.00,SSE,163,6.0,9.0,40,0.00,,,0.00,0.000000,,2013-03-14 17:02:00,
2013-03-14 11:12:00,51.0,28.0,-100.00,SSE,163,6.0,9.0,40,0.00,,,0.00,0.000000,,2013-03-14 17:12:00,
2013-03-14 11:42:00,50.0,27.0,-100.00,South,180,7.0,12.0,40,0.00,,,0.00,0.000000,,2013-03-14 17:42:00,
2013-03-14 11:52:00,50.0,27.0,-100.00,South,180,7.0,12.0,40,0.00,,,0.00,0.000000,,2013-03-14 17:52:00,
2013-03-14 12:02:00,50.0,27.0,-100.00,South,180,7.0,12.0,40,0.00,,,0.00,0.000000,,2013-03-14 18:02:00,
2013-03-14 12:12:00,50.0,27.0,-100.00,South,180,7.0,12.0,40,0.00,,,0.00,0.000000,,2013-03-14 18:12:00,
2013-03-14 12:33:00,56.0,29.0,-100.00,South,186,5.0,9.0,35,0.00,,,0.00,0.000000,,2013-03-14 18:33:00,
2013-03-14 12:43:00,56.0,29.0,-100.00,South,186,5.0,9.0,35,0.00,,,0.00,0.000000,,2013-03-14 18:43:00,
2013-03-14 12:52:00,56.0,29.0,-100.00,South,186,5.0,9.0,35,0.00,,,0.00,0.000000,,2013-03-14 18:52:00,
2013-03-14 13:02:00,56.0,29.0,-100.00,South,186,5.0,9.0,35,0.00,,,0.00,0.000000,,2013-03-14 19:02:00,
2013-03-14 13:12:00,56.0,29.0,-100.00,South,186,5.0,9.0,35,0.00,,,0.00,0.000000,,2013-03-14 19:12:00,
2013-03-14 14:42:00,58.0,29.0,-100.00,South,179,10.0,15.0,33,-99.99,,,0.00,0.000000,,2013-03-14 20:42:00,
2013-03-14 14:52:00,58.0,29.0,-100.00,South,179,10.0,15.0,33,-99.99,,,0.00,0.000000,,2013-03-14 20:52:00,
2013-03-14 15:02:00,58.0,29.0,-100.00,South,179,10.0,15.0,33,-99.99,,,0.00,0.000000,,2013-03-14 21:02:00,
2013-03-14 15:12:00,58.0,29.0,-100.00,South,179,10.0,15.0,33,-99.99,,,0.00,0.000000,,2013-03-14 21:12:00,
2013-03-14 15:43:00,57.0,27.0,-100.00,South,179,6.0,13.0,31,0.00,,,-99.99,0.000000,,2013-03-14 21:43:00,
2013-03-14 15:53:00,57.0,27.0,-100.00,South,179,6.0,13.0,31,0.00,,,-99.99,0.000000,,2013-03-14 21:53:00,
2013-03-14 16:03:00,57.0,27.0,-100.00,South,179,6.0,13.0,31,0.00,,,-99.99,0.000000,,2013-03-14 22:03:00,
2013-03-14 16:12:00,57.0,27.0,-100.00,South,179,6.0,13.0,31,0.00,,,-99.99,0.000000,,2013-03-14 22:12:00,
2013-03-14 16:42:00,57.0,27.0,-100.00,South,189,3.0,9.0,32,0.00,,,0.00,0.000000,,2013-03-14 22:42:00,
2013-03-14 16:52:00,57.0,27.0,-100.00,South,189,3.0,9.0,32,0.00,,,0.00,0.000000,,2013-03-14 22:52:00,
2013-03-14 17:02:00,57.0,27.0,-100.00,South,189,3.0,9.0,32,0.00,,,0.00,0.000000,,2013-03-14 23:02:00,
2013-03-14 17:11:00,57.0,27.0,-100.00,South,189,3.0,9.0,32,0.00,,,0.00,0.000000,,2013-03-14 23:11:00,
2013-03-14 17:33:00,59.0,28.0,-100.00,South,184,5.0,10.0,31,0.00,,,0.00,0.000000,,2013-03-14 23:33:00,
2013-03-14 17:43:00,59.0,28.0,-100.00,South,184,5.0,10.0,31,0.00,,,0.00,0.000000,,2013-03-14 23:43:00,
2013-03-14 17:53:00,59.0,28.0,-100.00,South,184,5.0,10.0,31,0.00,,,0.00,0.000000,,2013-03-14 23:53:00,
2013-03-14 18:02:00,59.0,28.0,-100.00,South,184,5.0,10.0,31,0.00,,,0.00,0.000000,,2013-03-15 00:02:00,
2013-03-14 18:12:00,59.0,28.0,-100.00,South,184,5.0,10.0,31,0.00,,,0.00,0.000000,,2013-03-15 00:12:00,
2013-03-14 18:42:00,57.0,27.0,-100.00,SSE,163,6.0,7.0,32,0.00,,,0.00,0.000000,,2013-03-15 00:42:00,
2013-03-14 18:52:00,57.0,27.0,-100.00,SSE,163,6.0,7.0,32,0.00,,,0.00,0.000000,,2013-03-15 00:52:00,
2013-03-14 19:02:00,57.0,27.0,-100.00,SSE,163,6.0,7.0,32,0.00,,,0.00,0.000000,,2013-03-15 01:02:00,
2013-03-14 19:11:00,57.0,27.0,-100.00,SSE,163,6.0,7.0,32,0.00,,,0.00,0.000000,,2013-03-15 01:11:00,
2013-03-14 19:33:00,52.0,27.0,-100.00,ESE,123,6.0,9.0,37,0.00,,,0.00,0.000000,,2013-03-15 01:33:00,
2013-03-14 19:43:00,52.0,27.0,-100.00,ESE,123,6.0,9.0,37,0.00,,,0.00,0.000000,,2013-03-15 01:43:00,
2013-03-14 19:52:00,52.0,27.0,-100.00,ESE,123,6.0,9.0,37,0.00,,,0.00,0.000000,,2013-03-15 01:52:00,
2013-03-14 20:02:00,52.0,27.0,-100.00,ESE,123,6.0,9.0,37,0.00,,,0.00,0.000000,,2013-03-15 02:02:00,
2013-03-14 20:11:00,52.0,27.0,-100.00,ESE,123,6.0,9.0,37,0.00,,,0.00,0.000000,,2013-03-15 02:11:00,
2013-03-14 20:32:00,48.0,24.0,-100.00,ESE,108,6.0,9.0,38,0.00,,,0.00,0.000000,,2013-03-15 02:32:00,
2013-03-14 20:42:00,48.0,24.0,-100.00,ESE,108,6.0,9.0,38,0.00,,,0.00,0.000000,,2013-03-15 02:42:00,
2013-03-14 20:52:00,48.0,24.0,-100.00,ESE,108,6.0,9.0,38,0.00,,,0.00,0.000000,,2013-03-15 02:52:00,
2013-03-14 21:02:00,48.0,24.0,-100.00,ESE,108,6.0,9.0,38,0.00,,,0.00,0.000000,,2013-03-15 03:02:00,
2013-03-14 21:11:00,48.0,24.0,-100.00,ESE,108,6.0,9.0,38,0.00,,,0.00,0.000000,,2013-03-15 03:11:00,
2013-03-14 21:33:00,44.0,25.0,-100.00,ESE,107,6.0,10.0,46,0.00,,,0.00,0.000000,,2013-03-15 03:33:00,
2013-03-14 21:43:00,44.0,25.0,-100.00,ESE,107,6.0,10.0,46,0.00,,,0.00,0.000000,,2013-03-15 03:43:00,
2013-03-14 21:53:00,44.0,25.0,-100.00,ESE,107,6.0,10.0,46,0.00,,,0.00,0.000000,,2013-03-15 03:53:00,
2013-03-14 22:03:00,44.0,25.0,-100.00,ESE,107,6.0,10.0,46,0.00,,,0.00,0.000000,,2013-03-15 04:03:00,
2013-03-14 22:12:00,44.0,25.0,-100.00,ESE,107,6.0,10.0,46,0.00,,,0.00,0.000000,,2013-03-15 04:12:00,
2013-03-14 22:43:00,46.0,24.0,-100.00,ESE,102,7.0,12.0,42,0.00,,,0.00,0.000000,,2013-03-15 04:43:00,
2013-03-14 22:53:00,46.0,24.0,-100.00,ESE,102,7.0,12.0,42,0.00,,,0.00,0.000000,,2013-03-15 04:53:00,
2013-03-14 23:02:00,46.0,24.0,-100.00,ESE,102,7.0,12.0,42,0.00,,,0.00,0.000000,,2013-03-15 05:02:00,
2013-03-14 23:12:00,46.0,24.0,-100.00,ESE,102,7.0,12.0,42,0.00,,,0.00,0.000000,,2013-03-15 05:12:00,
2013-03-14 23:32:00,46.0,24.0,-100.00,ESE,114,7.0,10.0,42,0.00,,,-99.99,0.000000,,2013-03-15 05:32:00,
2013-03-14 23:42:00,46.0,24.0,-100.00,ESE,114,7.0,10.0,42,0.00,,,-99.99,0.000000,,2013-03-15 05:42:00,
2013-03-14 23:52:00,46.0,24.0,-100.00,ESE,114,7.0,10.0,42,0.00,,,-99.99,0.000000,,2013-03-15 05:52:00,